F3965 Weather Reports


time (UTC)temp
F
wind
direction
speed
knots
gust
knots
rain 1hr
in
rain 24hr
in
rain mn
in
humidity
%
barometer
mb
20260506154532 55 0 0.0 3.5 0.02 0.14 0.06 57 1014.7
20260506153030 55 275 3.5 7.0 0.03 0.14 0.06 57 1014.8
20260506151531 55 29 0.0 6.1 0.04 0.13 0.05 57 1014.8
20260506150030 55 5 1.7 8.7 0.03 0.12 0.04 58 1014.9
20260506144534 56 340 2.6 4.3 0.03 0.18 0.03 58 1015.0
20260506143033 57 29 3.5 7.8 0.00 0.15 0.01 56 1015.0
20260506141533 58 77 3.5 14.8 0.00 0.14 0.00 53 1015.1
20260506140032 59 49 7.8 19.1 0.00 0.14 0.00 51 1014.9
20260506134532 59 42 9.6 18.2 0.00 0.25 0.00 49 1014.9
20260506133032 59 28 8.7 18.2 0.00 0.25 0.00 50 1014.9
20260506131544 59 59 7.0 19.1 0.00 0.25 0.00 50 1014.7
20260506130037 59 30 9.6 20.9 0.00 0.25 0.00 51 1014.8
20260506124529 59 344 8.7 14.8 0.00 0.25 0.00 49 1014.7
20260506123031 59 30 7.8 15.6 0.00 0.25 0.00 50 1014.5
20260506121530 60 25 7.8 13.9 0.00 0.25 0.00 49 1014.5
20260506120033 60 28 4.3 14.8 0.00 0.25 0.00 46 1014.4
20260506114534 60 44 7.8 14.8 0.00 0.25 0.00 46 1014.4
20260506113030 59 22 7.8 14.8 0.00 0.25 0.00 49 1014.5
20260506111531 59 26 7.0 14.8 0.00 0.25 0.00 49 1014.6
20260506110033 59 5 8.7 13.0 0.00 0.25 0.00 49 1014.5
20260506104533 58 59 5.2 12.2 0.00 0.25 0.00 51 1014.6
20260506103045 59 31 4.3 9.6 0.00 0.25 0.00 46 1014.4
20260506101543 59 40 3.5 7.8 0.00 0.25 0.00 46 1014.3
20260506100052 59 24 7.0 11.3 0.00 0.25 0.00 47 1014.4
20260506094533 58 34 2.6 8.7 0.00 0.25 0.00 48 1014.5
20260506093039 58 36 5.2 9.6 0.00 0.25 0.00 48 1014.4
20260506091537 58 360 3.5 9.6 0.00 0.25 0.00 48 1014.2
20260506090034 58 28 2.6 12.2 0.00 0.25 0.00 47 1014.2
20260506084540 58 5 5.2 11.3 0.00 0.25 0.00 46 1014.1
20260506083033 58 24 7.8 15.6 0.00 0.25 0.00 47 1014.2
20260506081541 57 17 7.0 13.0 0.00 0.25 0.00 47 1014.1
20260506073043 53 271 4.3 8.7 0.00 0.25 0.00 53 1014.1
20260506071536 51 282 2.6 8.7 0.00 0.25 0.00 55 1014.0
20260506061535 50 215 0.0 1.7 0.00 0.25 0.00 64 1013.8
20260506044613 49 252 0.9 2.6 0.00 0.25 0.00 64 1013.4
20260506043032 49 0 0.9 2.6 0.00 0.25 0.00 64 1013.4
20260506041531 49 0 0.0 1.7 0.00 0.25 0.00 64 1013.4
20260506040031 49 0 0.0 0.9 0.00 0.25 0.00 64 1013.6
20260506034600 49 248 0.0 2.6 0.00 0.26 0.00 64 1013.6
20260506033035 49 250 0.0 1.7 0.00 0.26 0.00 64 1013.6
20260506031531 49 0 0.0 0.9 0.00 0.26 0.00 64 1013.6
20260506030032 49 0 0.0 1.7 0.00 0.26 0.00 64 1013.7
20260506024532 49 0 0.0 1.7 0.00 0.26 0.00 64 1013.8
20260506023035 49 250 0.0 2.6 0.00 0.26 0.00 64 1013.7
20260506021534 49 245 1.7 4.3 0.00 0.26 0.00 64 1013.7
20260506020030 49 235 0.0 2.6 0.00 0.25 0.00 64 1013.9
20260506014533 49 235 1.7 3.5 0.00 0.25 0.00 64 1013.9
20260506013035 50 0 0.0 1.7 0.00 0.25 0.00 64 1013.8
20260506011533 49 0 0.0 1.7 0.00 0.25 0.00 64 1014.0
20260506010035 49 0 0.0 1.7 0.00 0.25 0.00 64 1014.1
20260506004556 49 223 0.0 2.6 0.00 0.25 0.00 64 1014.3
20260506003041 49 0 0.9 2.6 0.00 0.25 0.00 63 1014.3
20260506001530 49 223 0.0 1.7 0.00 0.25 0.00 63 1014.5
20260506000031 49 223 0.9 2.6 0.00 0.25 0.00 63 1014.4
20260505234549 49 223 0.9 2.6 0.00 0.30 0.00 62 1014.5
20260505233036 49 0 0.9 3.5 0.00 0.30 0.00 62 1014.6
20260505231535 49 223 0.9 3.5 0.00 0.30 0.00 61 1014.6
20260505230040 49 0 0.9 2.6 0.00 0.30 0.00 60 1014.6
20260505224536 49 227 0.0 2.6 0.00 0.30 0.00 59 1014.6
20260505223031 49 227 1.7 3.5 0.00 0.30 0.00 59 1014.6
20260505221535 50 0 0.0 2.6 0.00 0.30 0.00 59 1014.8
20260505220043 50 263 1.7 3.5 0.00 0.30 0.00 58 1014.8
20260505214537 50 262 0.9 2.6 0.00 0.30 0.30 58 1014.8
20260505213031 51 0 0.0 2.6 0.00 0.30 0.30 58 1015.1
20260505211530 51 262 0.0 2.6 0.00 0.30 0.30 58 1015.1
20260505210030 51 265 0.9 6.1 0.00 0.30 0.30 58 1015.0
20260505204535 52 0 0.0 0.0 0.00 0.30 0.30 58 1014.9
20260505203030 52 0 0.0 0.0 0.00 0.30 0.30 58 1014.8
20260505201536 52 0 0.0 1.7 0.00 0.29 0.29 58 1014.9
20260505200030 52 0 0.0 1.7 0.00 0.29 0.29 58 1014.6
20260505194537 53 0 0.0 0.9 0.03 0.29 0.29 58 1014.6
20260505193038 53 37 0.0 2.6 0.04 0.29 0.29 58 1014.5
20260505191547 53 0 0.0 2.6 0.04 0.29 0.29 57 1014.3
20260505190031 54 35 0.9 13.0 0.03 0.29 0.29 56 1014.2
20260505184533 54 315 5.2 8.7 0.00 0.25 0.25 55 1014.3
20260505183035 55 273 0.9 3.5 0.00 0.25 0.25 56 1014.2
20260505181534 55 275 0.9 5.2 0.00 0.25 0.25 57 1014.1
20260505180045 55 287 1.7 5.2 0.00 0.25 0.25 57 1014.1
20260505174539 55 302 1.7 5.2 0.00 0.25 0.25 57 1014.1
20260505173031 56 252 0.9 6.1 0.00 0.25 0.25 57 1014.0
20260505171534 56 269 1.7 7.0 0.00 0.24 0.24 56 1014.1
20260505170036 56 279 1.7 6.1 0.00 0.24 0.24 55 1014.2
20260505164530 56 288 4.3 10.4 0.00 0.24 0.24 52 1014.2
20260505163038 56 13 4.3 12.2 0.01 0.24 0.24 52 1014.1
20260505161530 56 31 6.1 13.0 0.01 0.24 0.24 52 1013.9